SV1JCZ-13 Weather Reports


time (UTC)temp
F
wind
direction
speed
knots
gust
knots
rain 1hr
in
rain 24hr
in
rain mn
in
humidity
%
barometer
mb
20260504050306 44 286 0.0 3.5 0.00 0.08 0.00 70
20260504045706 44 270 0.0 0.0 0.00 0.08 0.00 68
20260504045106 44 270 0.0 9.6 0.00 0.08 0.00 68
20260504044506 44 313 0.0 7.0 0.00 0.08 0.00 68
20260504043906 43 292 3.5 5.2 0.00 0.08 0.00 67
20260504043707 43 320 0.0 5.2 0.00 0.08 0.00 69
20260504043306 43 5 0.0 6.1 0.00 0.08 0.00 69
20260504042706 42 241 0.0 0.0 0.00 0.08 0.00 70
20260504042106 42 241 0.0 0.0 0.00 0.08 0.00 72
20260504041707 41 241 0.0 4.3 0.00 0.08 0.00 74
20260504041506 41 99 2.6 4.3 0.00 0.08 0.00 76
20260504040906 40 178 0.0 0.0 0.00 0.08 0.00 77
20260504040306 40 178 0.0 0.0 0.00 0.08 0.00 80
20260504035706 40 178 0.0 0.0 0.00 0.08 0.00 81
20260504035106 40 178 0.0 0.0 0.00 0.08 0.00 82
20260504034506 40 178 0.0 0.0 0.00 0.08 0.00 83
20260504033906 40 178 0.0 0.0 0.00 0.08 0.00 82
20260504033707 40 178 0.0 0.0 0.00 0.08 0.00 82
20260504033306 40 178 0.0 0.0 0.00 0.08 0.00 82
20260504032706 40 178 0.0 0.0 0.00 0.08 0.00 82
20260504032106 40 178 0.0 2.6 0.00 0.08 0.00 81
20260504031713 40 157 0.0 0.0 0.00 0.08 0.00 82
20260504031506 40 157 0.0 0.0 0.00 0.08 0.00 82
20260504030906 40 157 0.0 0.0 0.00 0.08 0.00 82
20260504030407 40 157 0.0 0.0 0.00 0.08 0.00 82
20260504030306 40 157 0.0 0.0 0.00 0.08 0.00 82
20260504025706 40 157 0.0 0.0 0.00 0.08 0.00 82
20260504025106 40 157 0.0 0.0 0.00 0.08 0.00 82
20260504024506 40 157 0.0 0.0 0.00 0.08 0.00 82
20260504023906 40 157 0.0 0.0 0.00 0.08 0.00 82
20260504023707 40 157 0.0 0.0 0.00 0.08 0.00 82
20260504023306 40 157 0.0 0.0 0.00 0.08 0.00 82
20260504022706 40 157 0.0 0.0 0.00 0.08 0.00 82
20260504022233 40 157 0.0 0.0 0.00 0.08 0.00 82
20260504022106 40 157 0.0 0.0 0.00 0.08 0.00 82
20260504021506 40 157 0.0 0.0 0.00 0.08 0.00 82
20260504020906 40 157 0.0 0.0 0.00 0.08 0.00 82
20260504020306 40 157 0.0 0.0 0.00 0.08 0.00 81
20260504020115 40 157 0.0 4.3 0.00 0.08 0.00 82
20260504015706 40 157 0.0 4.3 0.00 0.08 0.00 82
20260504015106 40 170 0.0 0.0 0.00 0.08 0.00 82
20260504014506 40 170 0.0 0.0 0.00 0.08 0.00 81
20260504013906 40 170 0.0 0.0 0.00 0.08 0.00 81
20260504013707 40 170 0.0 0.0 0.00 0.08 0.00 81
20260504013306 40 170 0.0 0.0 0.00 0.08 0.00 81
20260504012706 40 170 0.0 3.5 0.00 0.08 0.00 81
20260504012106 40 164 0.0 0.0 0.00 0.08 0.00 81
20260504011707 40 164 0.0 4.3 0.00 0.08 0.00 81
20260504011506 40 163 2.6 4.3 0.00 0.08 0.00 81
20260504010906 40 133 3.5 3.5 0.00 0.08 0.00 81
20260504010306 40 170 0.0 0.0 0.00 0.08 0.00 81
20260504005706 40 170 0.0 0.0 0.00 0.08 0.00 80
20260504005106 40 170 0.0 0.0 0.00 0.08 0.00 81
20260504004506 40 170 0.0 2.6 0.00 0.08 0.00 80
20260504003906 40 181 1.7 4.3 0.00 0.08 0.00 80
20260504003306 40 171 0.0 0.0 0.00 0.08 0.00 80
20260504002706 40 171 0.0 2.6 0.00 0.08 0.00 80
20260504002106 41 170 0.0 0.0 0.00 0.08 0.00 80
20260504001708 41 170 0.0 0.0 0.00 0.08 0.00 80
20260504001506 41 170 0.0 0.0 0.00 0.08 0.00 80
20260504000906 41 170 0.0 0.0 0.00 0.08 0.00 80
20260504000306 41 170 0.0 0.0 0.00 0.08 0.00 80
20260503235706 41 170 0.0 0.0 0.00 0.08 0.00 80
20260503235106 41 170 0.0 0.0 0.00 0.08 0.00 79
20260503234506 41 170 0.0 2.6 0.00 0.08 0.00 79
20260503233906 41 163 0.0 0.0 0.00 0.08 0.00 79
20260503233708 41 163 0.0 0.0 0.00 0.08 0.00 79
20260503233306 41 163 0.0 0.0 0.00 0.08 0.00 79
20260503232706 41 163 0.0 0.0 0.00 0.08 0.00 79
20260503232107 41 163 0.0 2.6 0.00 0.08 0.00 79
20260503231708 41 170 0.0 0.0 0.00 0.08 0.00 78
20260503231507 41 170 0.0 0.0 0.00 0.08 0.00 78
20260503230907 41 170 0.0 0.0 0.00 0.08 0.00 78
20260503230307 41 170 0.0 0.0 0.00 0.08 0.00 78
20260503225707 41 170 0.0 0.0 0.00 0.08 0.00 78
20260503225107 41 170 0.0 0.0 0.00 0.08 0.00 78
20260503224507 41 170 0.0 0.0 0.00 0.08 0.00 78
20260503223907 41 170 0.0 0.0 0.00 0.08 0.00 77
20260503223708 41 170 0.0 0.0 0.00 0.08 0.00 77
20260503223307 41 170 0.0 3.5 0.00 0.08 0.00 77
20260503222707 42 160 0.0 0.0 0.00 0.08 0.00 77
20260503222107 42 160 0.0 0.0 0.00 0.08 0.00 77
20260503221708 42 160 0.0 0.0 0.00 0.08 0.00 77
20260503221507 42 160 0.0 0.0 0.00 0.08 0.00 77
20260503220907 42 160 0.0 3.5 0.00 0.08 0.00 77
20260503220307 42 170 0.0 0.0 0.00 0.08 0.00 77
20260503215707 42 170 0.0 0.0 0.00 0.08 0.00 77
20260503215107 42 170 0.0 0.0 0.00 0.08 0.00 77
20260503214507 42 170 0.0 0.0 0.00 0.08 0.00 76
20260503213907 42 170 0.0 0.0 0.00 0.08 0.00 76
20260503213708 42 170 0.0 0.0 0.00 0.08 0.00 76
20260503213307 42 170 0.0 0.0 0.00 0.08 0.00 76
20260503212707 42 170 0.0 0.0 0.00 0.08 0.00 76
20260503212107 42 170 0.0 0.0 0.00 0.08 0.00 76
20260503211708 42 170 0.0 3.5 0.00 0.08 0.00 76
20260503211507 42 170 0.0 3.5 0.00 0.08 0.00 76
20260503210907 42 136 0.0 3.5 0.00 0.08 0.00 76
20260503210307 43 158 0.0 3.5 0.00 0.08 0.00 76
20260503205707 43 157 2.6 3.5 0.00 0.08 0.00 75
20260503205107 43 164 0.0 0.0 0.00 0.08 0.00 75
20260503204507 43 164 0.0 3.5 0.00 0.08 0.00 75
20260503203907 43 153 0.0 3.5 0.00 0.08 0.00 75
20260503203708 43 153 0.0 3.5 0.00 0.08 0.00 75
20260503203307 43 151 0.0 0.0 0.00 0.08 0.00 75
20260503202707 43 151 0.0 0.0 0.00 0.08 0.00 74
20260503202107 44 151 0.0 0.0 0.00 0.08 0.00 74
20260503201708 44 151 0.0 0.0 0.00 0.08 0.00 74
20260503201507 44 151 0.0 0.0 0.00 0.08 0.00 74
20260503200907 44 151 0.0 0.0 0.00 0.08 0.00 74
20260503200307 44 151 0.0 0.0 0.00 0.08 0.00 74
20260503195707 44 151 0.0 0.0 0.00 0.08 0.00 74
20260503195107 45 151 0.0 0.0 0.00 0.08 0.00 74
20260503194507 45 151 0.0 0.0 0.00 0.08 0.00 74
20260503193907 45 151 0.0 0.0 0.00 0.08 0.00 73
20260503193708 45 151 0.0 0.0 0.00 0.08 0.00 73
20260503193307 45 151 0.0 0.0 0.00 0.08 0.00 73
20260503192707 45 151 0.0 0.0 0.00 0.08 0.00 73
20260503192107 45 151 0.0 0.0 0.00 0.08 0.00 73
20260503191708 45 151 0.0 0.0 0.00 0.08 0.00 73
20260503191507 46 151 0.0 0.0 0.00 0.08 0.00 73
20260503190907 46 151 0.0 0.0 0.00 0.08 0.00 72
20260503190307 46 151 0.0 0.0 0.00 0.08 0.00 72
20260503185707 46 151 0.0 0.0 0.00 0.08 0.00 72
20260503185107 46 151 0.0 1.7 0.00 0.08 0.00 72
20260503184507 47 153 0.0 0.0 0.00 0.08 0.00 72
20260503183907 47 153 0.0 0.0 0.00 0.08 0.00 72
20260503183708 47 153 0.0 0.0 0.00 0.08 0.00 72
20260503183307 47 153 0.0 0.0 0.00 0.08 0.00 71
20260503182707 47 153 0.0 0.0 0.00 0.08 0.00 71
20260503182107 47 153 0.0 1.7 0.00 0.08 0.00 70
20260503181708 48 153 0.9 1.7 0.00 0.08 0.00 70
20260503181507 48 147 0.0 0.0 0.00 0.08 0.00 70
20260503180907 48 147 0.0 0.0 0.00 0.08 0.00 69
20260503180307 48 147 0.0 0.0 0.00 0.08 0.00 67
20260503175707 48 147 0.0 2.6 0.00 0.08 0.08 65
20260503175107 49 68 0.0 0.0 0.00 0.08 0.08 64
20260503174507 49 68 0.0 0.0 0.00 0.08 0.08 64
20260503173907 49 68 0.0 0.0 0.00 0.08 0.08 63
20260503173708 49 68 0.0 0.9 0.00 0.08 0.08 62
20260503173307 49 68 0.0 3.5 0.00 0.08 0.08 62
20260503172707 50 241 0.0 0.0 0.00 0.08 0.08 62
20260503172107 50 241 0.0 0.0 0.00 0.08 0.08 64
20260503171507 51 241 0.0 0.0 0.00 0.08 0.08 64
20260503170907 51 241 0.0 0.0 0.00 0.08 0.08 63
20260503170307 52 241 0.0 0.0 0.00 0.08 0.08 62
20260503150907 57 310 0.0 5.2 0.00 0.08 0.08 55
20260503150307 58 230 0.0 0.0 0.00 0.08 0.08 53
20260503140308 56 272 0.0 4.3 0.00 0.08 0.08 58
20260503130908 49 156 1.7 4.3 0.00 0.08 0.08 77
20260503130308 48 288 0.0 6.1 0.00 0.08 0.08 76
20260503110308 42 350 0.0 0.0 0.03 0.08 0.08 87
20260503090308 45 313 4.3 6.1 0.00 0.01 0.01 84
20260503081508 43 296 0.0 0.0 0.01 0.01 0.01 86
20260503080908 45 296 0.0 3.5 0.01 0.01 0.01 86
20260503080308 45 296 0.0 0.0 0.01 0.01 0.01 86
20260503072708 45 216 0.0 0.0 0.00 0.01 0.00 83
20260503072108 45 216 0.0 1.7 0.00 0.01 0.00 82
20260503071709 45 216 0.0 1.7 0.00 0.01 0.00 82
20260503071508 45 271 0.0 0.0 0.00 0.01 0.00 82
20260503070908 45 271 0.0 0.0 0.00 0.01 0.00 81
20260503070308 45 271 0.0 0.0 0.00 0.01 0.00 80
20260503060308 45 285 0.0 0.0 0.00 0.05 0.00 78
20260503055108 45 285 0.0 1.7 0.00 0.07 0.00 79
20260503054508 45 285 0.0 5.2 0.00 0.07 0.00 79
20260503053908 45 320 0.0 7.0 0.00 0.07 0.00 79
20260503053713 45 327 5.2 7.0 0.00 0.07 0.00 79
20260503053308 45 9 0.0 0.0 0.00 0.07 0.00 79
20260503052708 44 9 0.0 0.0 0.00 0.07 0.00 81
20260503052108 44 9 0.0 0.0 0.00 0.07 0.00 81